This is the latest recevied weather packets stored in our database for station/object AG7BI. If no packets are shown the sender has not sent any weather packets the latest 1 day(s).
| Time | Temp. | Humidity | Pressure | Rain* | Wind** | Luminosity | Snow |
|---|---|---|---|---|---|---|---|
| 1778035552 | 13.89° C | 79% | 1015.1 hPa | 0 mm | 0.89 m/s, 131° | - | - |
| 1778035252 | 14.44° C | 79% | 1015.3 hPa | 0 mm | 0.45 m/s, 147° | - | - |
| 1778034952 | 14.44° C | 79% | 1015.3 hPa | 0 mm | 0.89 m/s, 124° | - | - |
| 1778034652 | 14.44° C | 79% | 1015.1 hPa | 0 mm | 0.45 m/s, 157° | - | - |
| 1778034352 | 14.44° C | 79% | 1015.2 hPa | 0 mm | 0 m/s | - | - |
| 1778034052 | 14.44° C | 79% | 1015.2 hPa | 0 mm | 0.89 m/s, 182° | - | - |
| 1778033752 | 14.44° C | 80% | 1015.3 hPa | 0 mm | 0.45 m/s, 154° | - | - |
| 1778033452 | 14.44° C | 79% | 1015.3 hPa | 0 mm | 0.45 m/s, 172° | - | - |
| 1778033152 | 15° C | 79% | 1015.3 hPa | 0 mm | 0.45 m/s, 157° | - | - |
| 1778032852 | 15° C | 79% | 1015.3 hPa | 0 mm | 0.45 m/s, 164° | - | - |
| 1778032552 | 15° C | 77% | 1015.1 hPa | 0 mm | 0.45 m/s, 167° | - | - |
| 1778032252 | 15° C | 78% | 1015 hPa | 0 mm | 0.45 m/s, 124° | - | - |
| 1778031952 | 15° C | 77% | 1014.9 hPa | 0 mm | 0.45 m/s, 121° | - | - |
| 1778031652 | 15° C | 77% | 1015.3 hPa | 0 mm | 0.45 m/s, 163° | - | - |
| 1778031352 | 15° C | 77% | 1015.1 hPa | 0 mm | 0.89 m/s, 159° | - | - |
| 1778031052 | 15° C | 77% | 1015.3 hPa | 0 mm | 0.45 m/s, 157° | - | - |
| 1778030752 | 15° C | 77% | 1015.4 hPa | 0 mm | 0.89 m/s, 121° | - | - |
| 1778030452 | 15° C | 76% | 1015.5 hPa | 0 mm | 0.45 m/s, 131° | - | - |
| 1778030152 | 15° C | 76% | 1015.3 hPa | 0 mm | 0.89 m/s, 129° | - | - |
| 1778029852 | 15° C | 77% | 1015.2 hPa | 0 mm | 0.45 m/s, 138° | - | - |
| 1778029552 | 15° C | 76% | 1015.3 hPa | 0 mm | 0.89 m/s, 140° | - | - |
| 1778029252 | 15° C | 75% | 1015.1 hPa | 0 mm | 0.89 m/s, 119° | - | - |
| 1778028952 | 15° C | 75% | 1015.2 hPa | 0 mm | 0.45 m/s, 181° | - | - |
| 1778028652 | 15.56° C | 77% | 1015.2 hPa | 0 mm | 1.34 m/s, 123° | - | - |
| 1778028352 | 15.56° C | 76% | 1015.1 hPa | 0 mm | 0.89 m/s, 162° | - | - |
* Rain latest hour (hover to see other rain measurements)
** Current wind speed in m/s (hover to see current wind gust speed)